DW3383 Weather Reports


time (UTC)temp
C
wind
direction
speed
KPH
gust
KPH
rain 1hr
cm
rain 24hr
cm
rain mn
cm
humidity
%
barometer
mb
20220811230807 17 78 1.6 4.8 0.00 0.03 0.00 75 1016.5
20220811230306 17 159 1.6 9.7 0.00 0.03 0.00 74 1016.5
20220811220306 16 34 0.0 3.2 0.00 0.08 0.00 80 1016.9
20220811210806 15 188 1.6 8.0 0.00 0.20 0.00 80 1017.2
20220811200807 13 47 1.6 4.8 0.00 0.33 0.00 83 1017.5
20220811170306 9 278 0.0 4.8 0.00 0.41 0.00 97 1018.1
20220811150806 7 298 0.0 3.2 0.00 0.41 0.00 96 1018.4
20220811150307 7 302 0.0 3.2 0.00 0.41 0.00 96 1018.4
20220811140806 7 274 0.0 3.2 0.00 0.41 0.00 96 1018.5
20220811130306 6 265 0.0 3.2 0.00 0.41 0.00 96 1018.7
20220811100806 5 141 3.2 3.2 0.00 0.41 0.00 96 1019.7
20220811090306 5 299 4.8 4.8 0.00 0.41 0.00 96 1019.8
20220811080806 5 301 4.8 4.8 0.00 0.41 0.00 96 1019.9
20220811070857 6 300 3.2 4.8 0.00 0.41 0.00 96 1019.9
20220811050806 9 294 3.2 3.2 0.00 0.41 0.41 93 1019.5
20220811050306 10 293 3.2 4.8 0.00 0.41 0.41 92 1019.6
20220811040306 10 333 1.6 3.2 0.00 0.41 0.41 94 1019.0
20220811030307 10 291 4.8 8.0 0.00 0.41 0.41 93 1018.8
20220811020808 10 306 3.2 4.8 0.00 0.41 0.41 93 1018.9
20220811020306 10 310 1.6 8.0 0.00 0.41 0.41 93 1018.7
20220811010306 11 2 0.0 3.2 0.00 0.41 0.41 93 1018.3
20220811000807 11 82 0.0 1.6 0.03 0.41 0.41 92 1018.0